[[{"header":{"parameterUnit":"m.s-1","parameterCategory":1,"la1":30.2991,"la2":30.254,"lo1":-89.0895,"lo2":-89.0444,"dy":0.0017,"dx":0.0017,"nx":28,"ny":28,"refTime":"2023-11-10T09:00:00:Z","depth":0,"parameterNumber":2,"parameterNumberName":"U-component_of_WINDS"},"data":[0,0,0,0,0,0,0,0,0,0,0,0,0,0,0,0,0,0,0,0,0,0,0,0,0,0,0,0,0,0,0,0,0,0,0,0,0,0,0,0,0,0,0,0,0,0,0,0,0,0,0,0,0,0,0,0,0,0,-2.5211,-2.5211,0,-2.5258,-2.5259,-2.526,-2.5205,-2.5203,-2.5201,-2.5199,-2.5249,-2.5252,-2.5255,0,0,0,0,0,0,0,0,0,0,0,0,0,-2.5074,-2.5077,-2.5211,-2.5211,-2.5212,-2.5258,-2.5259,-2.526,-2.5206,-2.5203,-2.5201,-2.5198,-2.5248,-2.5252,-2.5255,0,0,0,0,0,0,0,0,0,0,0,0,0,-2.5129,-2.5078,-2.5211,-2.5191,-2.5189,-2.5258,-2.5259,-2.526,-2.5206,-2.5203,-2.52,-2.5197,-2.5246,-2.5251,-2.5256,-2.5347,0,0,-2.5271,-2.5273,0,0,0,0,0,0,0,0,-2.5126,-2.5134,-2.5193,-2.5192,-2.5191,-2.5223,-2.5229,-2.5289,-2.5207,-2.52,-2.5199,-2.5196,-2.5243,-2.5248,-2.5263,-2.535,-2.5352,-2.5271,-2.5274,-2.5276,-2.5278,0,0,0,0,0,0,0,-2.5122,-2.5132,-2.523,-2.5194,-2.5193,-2.518,-2.5184,-2.524,-2.5238,-2.52,-2.5196,-2.5203,-2.5241,-2.5259,-2.5264,-2.5353,-2.5271,-2.5275,-2.5278,-2.528,-2.5518,-2.5521,0,0,0,0,0,0,-2.512,-2.5129,-2.5228,-2.5231,-2.515,-2.5184,-2.5189,-2.5216,-2.5237,-2.5237,-2.5205,-2.52,-2.5252,-2.5258,-2.5266,-2.5375,-2.5276,-2.5281,-2.5283,-2.5514,-2.5519,-2.5522,0,0,0,0,0,0,-2.5118,-2.513,-2.5226,-2.5179,-2.519,-2.519,-2.522,-2.5218,-2.5235,-2.5241,-2.524,-2.5223,-2.525,-2.5259,-2.5328,-2.5376,-2.5283,-2.5287,-2.551,-2.5516,-2.552,-2.5595,0,0,0,0,0,0,-2.5114,-2.5129,-2.5164,-2.518,-2.5193,-2.5287,-2.5223,-2.5221,-2.5244,-2.5237,-2.5258,-2.5258,-2.5248,-2.5321,-2.5333,-2.5381,-2.5291,-2.5506,-2.5513,-2.5519,-2.5588,-2.5602,-2.5614,0,0,0,0,0,-2.5109,-2.5182,-2.5166,-2.5178,-2.5236,-2.529,-2.5298,-2.5284,-2.5248,-2.5283,-2.5287,-2.5258,-2.5369,-2.5328,-2.5341,-2.5392,-2.5503,-2.5511,-2.5518,-2.5582,-2.5599,-2.5613,0,0,0,0,0,0,-2.5172,-2.5184,-2.5166,-2.5246,-2.5268,-2.5281,-2.5325,-2.5302,-2.5335,-2.5327,-2.531,-2.5315,-2.5388,-2.5397,-2.5351,-2.5482,-2.543,-2.5441,-2.5474,-2.549,-2.5503,-2.55,-2.5295,0,0,0,0,0,-2.5195,-2.5238,-2.5246,-2.5317,-2.5328,-2.5325,-2.5348,-2.5336,-2.5357,-2.5366,-2.5375,-2.5397,-2.5437,-2.5464,-2.5501,-2.5589,-2.5593,-2.563,-2.5643,-2.5653,-2.5663,-2.5712,-2.5729,-2.5547,-2.5547,-2.5547,0,0,-2.5243,-2.5255,-2.5283,-2.5329,-2.5345,-2.539,-2.5333,-2.5383,-2.5416,-2.5374,-2.544,-2.5447,-2.5471,-2.555,-2.5585,-2.5559,-2.5714,-2.5663,-2.5671,-2.5675,-2.5721,-2.5738,-2.5754,-2.5553,-2.5552,-2.5551,0,0,-2.5354,-2.5367,-2.5428,-2.5445,-2.5468,-2.5465,-2.548,-2.5497,-2.55,-2.5566,-2.5536,-2.5575,-2.5644,-2.5663,-2.5682,-2.5801,-2.5776,-2.5814,-2.5881,-2.5929,-2.5943,-2.5955,-2.6,-2.6015,-2.5823,-2.5823,-2.5823,0,-2.5412,-2.5478,-2.5462,-2.5515,-2.5537,-2.55,-2.5562,-2.5578,-2.5613,-2.563,-2.56,-2.5686,-2.57,-2.5783,-2.5813,-2.5828,-2.5846,-2.5812,-2.5942,-2.5954,-2.5966,-2.6008,-2.6024,-2.5828,-2.5827,-2.5827,-2.5826,0,-2.5548,-2.5595,-2.5641,-2.5676,-2.5703,-2.576,-2.5753,-2.5782,-2.5768,-2.5768,-2.5837,-2.5851,-2.5892,-2.591,-2.5897,-2.5993,-2.5976,-2.5944,-2.5892,-2.5988,-2.6027,-2.6043,-2.5834,-2.5833,-2.5831,-2.583,0,0,-2.57,-2.5726,-2.5743,-2.5759,-2.5783,-2.5819,-2.5875,-2.5914,-2.594,-2.5965,-2.6012,-2.6072,-2.6043,-2.6064,-2.6053,-2.6094,-2.619,-2.6058,-2.6058,-2.6083,-2.6299,-2.6323,-2.6342,-2.6173,-2.6176,-2.6178,-2.6297,0,-2.5813,-2.591,-2.5897,-2.599,-2.6034,-2.6,-2.6049,-2.6069,-2.6071,-2.6109,-2.6112,-2.6155,-2.6113,-2.6126,-2.6165,-2.617,-2.6233,-2.6161,-2.6218,-2.622,-2.6215,-2.6362,-2.6388,-2.65,-2.6312,-2.6315,-2.6317,0,-2.5958,-2.5989,-2.6086,-2.6104,-2.6122,-2.6166,-2.6202,-2.6238,-2.6261,-2.626,-2.6284,-2.6265,-2.6322,-2.6267,-2.6346,-2.6298,-2.632,-2.6326,-2.633,-2.6336,-2.6275,-2.6374,-2.6534,-2.6552,-2.634,-2.6338,-2.6337,0,-2.6061,-2.6127,-2.6194,-2.6209,-2.6231,-2.6263,-2.6274,-2.6293,-2.6318,-2.6349,-2.6365,-2.6403,-2.6424,-2.6453,-2.6446,-2.6406,-2.6527,-2.6471,-2.6529,-2.6529,-2.6557,-2.6555,-2.6725,-2.6569,-2.6569,-2.6568,-2.6568,0,-2.6189,-2.6251,-2.6241,-2.6283,-2.6351,-2.6336,-2.6404,-2.641,-2.6428,-2.6471,-2.6443,-2.6484,-2.6471,-2.6511,-2.6505,-2.6573,-2.6582,-2.6583,-2.6581,-2.6587,-2.6587,-2.6602,-2.6595,-2.6573,-2.6572,-2.6571,-2.657,0,-2.6316,-2.6312,-2.6384,-2.6399,-2.6404,-2.6454,-2.6468,-2.6507,-2.6507,-2.6562,-2.6574,-2.6575,-2.6621,-2.6616,-2.6667,-2.6664,-2.6748,-2.6735,-2.674,-2.6738,-2.6796,-2.6791,-2.6983,-2.7008,-2.6834,-2.6836,-2.6837,0,-2.6399,-2.6446,-2.6466,-2.6493,-2.6506,-2.6549,-2.6575,-2.6562,-2.659,-2.662,-2.6656,-2.67,-2.6734,-2.681,-2.6815,-2.6855,-2.6845,-2.6909,-2.6851,-2.6855,-2.6848,-2.6846,-2.6851,-2.6921,-2.6923,-2.6925,-2.6926,0,-2.6547,-2.6543,-2.658,-2.6618,-2.6649,-2.6677,-2.6703,-2.6727,-2.6716,-2.6749,-2.6796,-2.6823,-2.6876,-2.692,-2.6958,-2.697,-2.6948,-2.6944,-2.696,-2.6967,-2.6968,-2.697,-2.6773,-2.694,-2.6939,-2.6938,-2.6937,-2.6936,-2.6655,-2.6696,-2.6717,-2.676,-2.6778,-2.6803,-2.6842,-2.6847,-2.6886,-2.6928,-2.6918,-2.6972,-2.6994,-2.7043,-2.7058,-2.7101,-2.7077,-2.71,-2.7106,-2.7112,-2.7119,-2.696,-2.7107,-2.7107,-2.7107,-2.7106,-2.7106,0,-2.6803,-2.6815,-2.6855,-2.6892,-2.6926,-2.6901,-2.6929,-2.6959,-2.7007,-2.703,-2.7064,-2.7119,-2.7162,-2.7171,-2.7213,-2.7245,-2.7236,-2.7257,-2.7255,-2.7259,-2.7137,-2.712,-2.7264,-2.7264,-2.7264,-2.7264,-2.7264,-2.7264,-2.6884,-2.6951,-2.695,-2.7027,-2.7038,-2.709,-2.7109,-2.7132,-2.715,-2.7213,-2.7249,-2.7254,-2.7272,-2.7315,-2.7354,-2.7355,-2.7373,-2.7398,-2.7396,-2.7283,-2.7267,-2.7252,-2.7236,-2.7402,-2.7402,-2.7514,-2.7515,-2.7516]},{"header":{"parameterUnit":"m.s-1","parameterCategory":1,"la1":30.2991,"la2":30.254,"lo1":-89.0895,"lo2":-89.0444,"dy":0.0017,"dx":0.0017,"nx":28,"ny":28,"refTime":"2023-11-10T09:00:00:Z","depth":0,"parameterNumber":3,"parameterNumberName":"V-component_of_WINDS"},"data":[0,0,0,0,0,0,0,0,0,0,0,0,0,0,0,0,0,0,0,0,0,0,0,0,0,0,0,0,0,0,0,0,0,0,0,0,0,0,0,0,0,0,0,0,0,0,0,0,0,0,0,0,0,0,0,0,0,0,-3.6113,-3.6113,0,-3.6083,-3.6083,-3.6082,-3.6012,-3.601,-3.6009,-3.6008,-3.5977,-3.5978,-3.5978,0,0,0,0,0,0,0,0,0,0,0,0,0,-3.6111,-3.6111,-3.6113,-3.6113,-3.6113,-3.6083,-3.6083,-3.6082,-3.6012,-3.601,-3.6009,-3.6007,-3.5977,-3.5978,-3.5978,0,0,0,0,0,0,0,0,0,0,0,0,0,-3.6099,-3.6111,-3.6114,-3.6074,-3.607,-3.6083,-3.6083,-3.6082,-3.6012,-3.601,-3.6008,-3.6006,-3.5977,-3.5978,-3.5978,-3.6027,0,0,-3.5981,-3.5981,0,0,0,0,0,0,0,0,-3.61,-3.6099,-3.608,-3.6077,-3.6073,-3.6049,-3.607,-3.6064,-3.6013,-3.6034,-3.6008,-3.6005,-3.6003,-3.6001,-3.6001,-3.6026,-3.6025,-3.5981,-3.5982,-3.5982,-3.5982,0,0,0,0,0,0,0,-3.6101,-3.61,-3.6101,-3.608,-3.6075,-3.6058,-3.6054,-3.6069,-3.6031,-3.6032,-3.6027,-3.6025,-3.6,-3.6,-3.5999,-3.6024,-3.5981,-3.5982,-3.5982,-3.5983,-3.6087,-3.6089,0,0,0,0,0,0,-3.6107,-3.6102,-3.6102,-3.61,-3.6081,-3.606,-3.6055,-3.6059,-3.6031,-3.6025,-3.6026,-3.6021,-3.6,-3.5998,-3.5998,-3.6052,-3.5982,-3.5983,-3.5983,-3.6085,-3.6087,-3.609,0,0,0,0,0,0,-3.6108,-3.6108,-3.6104,-3.61,-3.6098,-3.6062,-3.6067,-3.6059,-3.6059,-3.6026,-3.6019,-3.6033,-3.5998,-3.5997,-3.602,-3.6051,-3.5983,-3.5984,-3.6082,-3.6085,-3.6089,-3.6163,0,0,0,0,0,0,-3.6108,-3.6109,-3.6127,-3.6101,-3.6098,-3.6127,-3.6069,-3.606,-3.606,-3.6053,-3.6031,-3.6025,-3.5996,-3.6019,-3.6021,-3.605,-3.5984,-3.6079,-3.6083,-3.6087,-3.6158,-3.6168,-3.6178,0,0,0,0,0,-3.6108,-3.615,-3.6128,-3.6129,-3.612,-3.6129,-3.6127,-3.6093,-3.6063,-3.6081,-3.606,-3.6026,-3.6047,-3.6022,-3.6024,-3.6054,-3.6077,-3.6082,-3.6087,-3.6153,-3.6166,-3.6177,0,0,0,0,0,0,-3.6181,-3.6145,-3.6121,-3.6156,-3.6146,-3.6117,-3.6138,-3.6108,-3.6107,-3.61,-3.6058,-3.6054,-3.6083,-3.607,-3.6044,-3.6099,-3.6056,-3.6062,-3.6106,-3.6118,-3.6128,-3.613,-3.5985,0,0,0,0,0,-3.6201,-3.6211,-3.6179,-3.6212,-3.6208,-3.6175,-3.6177,-3.6151,-3.6139,-3.6135,-3.6115,-3.6105,-3.6109,-3.6113,-3.6115,-3.6155,-3.6149,-3.6177,-3.6187,-3.6195,-3.62,-3.622,-3.6231,-3.6107,-3.6107,-3.6106,0,0,-3.6243,-3.6224,-3.6233,-3.6227,-3.6216,-3.6226,-3.6171,-3.6185,-3.6193,-3.6137,-3.6157,-3.6143,-3.6129,-3.616,-3.6173,-3.6151,-3.6233,-3.6202,-3.6209,-3.6209,-3.6226,-3.6238,-3.6248,-3.611,-3.6109,-3.6109,0,0,-3.6324,-3.6312,-3.6337,-3.6327,-3.6311,-3.6288,-3.6295,-3.627,-3.6258,-3.6278,-3.6236,-3.6244,-3.6253,-3.6244,-3.624,-3.6317,-3.6285,-3.6319,-3.6372,-3.6391,-3.6401,-3.6409,-3.6436,-3.6446,-3.6325,-3.6325,-3.6325,0,-3.6378,-3.6392,-3.6354,-3.6371,-3.6369,-3.6318,-3.6343,-3.6336,-3.6322,-3.6321,-3.6297,-3.6305,-3.6292,-3.6321,-3.6339,-3.6339,-3.6344,-3.6322,-3.6402,-3.641,-3.6418,-3.6443,-3.6453,-3.6329,-3.6329,-3.6328,-3.6328,0,-3.6459,-3.6469,-3.6492,-3.6479,-3.6479,-3.6501,-3.6466,-3.6471,-3.6445,-3.6425,-3.6445,-3.6427,-3.6425,-3.6429,-3.6405,-3.6454,-3.6441,-3.641,-3.6366,-3.6435,-3.6457,-3.6466,-3.6335,-3.6333,-3.6332,-3.6331,0,0,-3.6586,-3.6551,-3.656,-3.6553,-3.6531,-3.6538,-3.6557,-3.6553,-3.6558,-3.655,-3.6564,-3.6572,-3.6543,-3.6539,-3.6513,-3.653,-3.659,-3.6496,-3.6495,-3.6514,-3.6643,-3.6666,-3.6677,-3.6569,-3.6571,-3.6572,-3.6644,0,-3.6661,-3.669,-3.6657,-3.6693,-3.6702,-3.6653,-3.6669,-3.6657,-3.6638,-3.6643,-3.6622,-3.6628,-3.659,-3.6587,-3.6601,-3.658,-3.6616,-3.6574,-3.6581,-3.6582,-3.6586,-3.6689,-3.6714,-3.6782,-3.6652,-3.6654,-3.6655,0,-3.6754,-3.6749,-3.6786,-3.6761,-3.6763,-3.6778,-3.6772,-3.6777,-3.6762,-3.6747,-3.6743,-3.6711,-3.6727,-3.6684,-3.6705,-3.6678,-3.6678,-3.6668,-3.667,-3.6669,-3.6622,-3.6691,-3.6804,-3.6814,-3.6669,-3.6667,-3.6666,0,-3.6842,-3.6845,-3.6867,-3.6862,-3.6834,-3.6845,-3.6834,-3.6817,-3.6817,-3.6812,-3.6811,-3.6808,-3.6806,-3.6804,-3.6772,-3.6744,-3.6796,-3.6752,-3.6784,-3.6785,-3.6797,-3.6797,-3.6911,-3.6799,-3.6799,-3.6798,-3.6798,0,-3.6929,-3.6954,-3.6906,-3.692,-3.6945,-3.6906,-3.6932,-3.6916,-3.6901,-3.6911,-3.6869,-3.6878,-3.6836,-3.6841,-3.6816,-3.6836,-3.6836,-3.6824,-3.6817,-3.6827,-3.6829,-3.6827,-3.6821,-3.6801,-3.68,-3.68,-3.6799,0,-3.7032,-3.7001,-3.7022,-3.6993,-3.6986,-3.7006,-3.6981,-3.6992,-3.697,-3.6983,-3.6983,-3.6949,-3.6953,-3.692,-3.6918,-3.6901,-3.6933,-3.6918,-3.6938,-3.6933,-3.6967,-3.6964,-3.7084,-3.7097,-3.6977,-3.6978,-3.6979,0,-3.709,-3.7108,-3.708,-3.7083,-3.7074,-3.7079,-3.7079,-3.704,-3.7041,-3.7025,-3.7039,-3.7039,-3.7037,-3.7044,-3.7019,-3.7017,-3.7001,-3.7043,-3.7001,-3.701,-3.7001,-3.7,-3.7001,-3.7052,-3.7054,-3.7055,-3.7056,0,-3.7196,-3.7179,-3.718,-3.7175,-3.7175,-3.717,-3.7162,-3.7167,-3.7125,-3.7128,-3.7131,-3.7129,-3.7126,-3.7127,-3.7119,-3.7107,-3.7075,-3.707,-3.7077,-3.7088,-3.7098,-3.7092,-3.6962,-3.7067,-3.7066,-3.7065,-3.7065,-3.7064,-3.7277,-3.729,-3.7273,-3.7274,-3.7264,-3.7257,-3.7266,-3.7244,-3.7246,-3.724,-3.7218,-3.7224,-3.7208,-3.7195,-3.7186,-3.719,-3.717,-3.718,-3.7183,-3.7186,-3.7192,-3.7098,-3.7189,-3.7188,-3.7188,-3.7188,-3.7187,0,-3.7381,-3.7367,-3.7369,-3.7358,-3.7359,-3.7328,-3.7317,-3.732,-3.7326,-3.7314,-3.7312,-3.7315,-3.7315,-3.7289,-3.7286,-3.7294,-3.7279,-3.7295,-3.7294,-3.7291,-3.7211,-3.7205,-3.7307,-3.7307,-3.7307,-3.7307,-3.7307,-3.7307,-3.7434,-3.7454,-3.7435,-3.7449,-3.7435,-3.7441,-3.7437,-3.743,-3.742,-3.7425,-3.7424,-3.7407,-3.7389,-3.7384,-3.7382,-3.7374,-3.7375,-3.7395,-3.7383,-3.7308,-3.7297,-3.7286,-3.728,-3.7396,-3.7396,-3.7462,-3.7463,-3.7463]}]]